STARLINK-3982 (52614 NORAD) Tracking and Keplerian Element Data

This shows tracking and keplerian element data for the satellite.

Feedback or suggestion? Click here.




ElementValue
Catalog52614
NameSTARLINK-3982
Epoch Orbit130
Epoch Day167.08334491
Epoch Year2022
RAAN280.0292
Inclination53.2125
Eccentricity0.0001745
Argument of Perigee37.5306
Mean Anonmoly347.2292
Mean Motion15.732043
Decay Rate0.00073322
L11 52614U 22052S 22167.08334491 .00073322 00000+0 52218-3 0 9996
L22 52614 53.2125 280.0292 0001745 37.5306 347.2292 15.73204300 1300

Live tracking and technical data element details for STARLINK-3982 (NORAD 52614). STARLINK-3982 can be tracked NOW for your location showing map with azimuth and elevation plus other details from your city location.

Track the satellite on the map from your city or location and see movement details for azimuth, elevation, latitude, longitude, range, height, and movement on the map or in text.







IsCatalogInMostPopularTable: catalog: 52614, numindb: 1
Update: records affected: 1



GetName: 52614 STARLINK-3982

Hit Count: updated at: Mon, 27 Jun 2022 06:07:04 GMT